Tracking 20721 objects as of 2-Jun-2020
HD Live streaming from Space Station
objects crossing your sky now

WESTFORD NEEDLES

Track WESTFORD NEEDLES now!
10-day predictions
WESTFORD NEEDLES is classified as:


NORAD ID: 2949
Int'l Code: 1963-014AS
Perigee: 1,476.3 km
Apogee: 5,576.0 km
Inclination: 85.9 °
Period: 163.3 minutes
Semi major axis: 9897 km
RCS: 0.2138 m2 (medium)
Launch date: May 9, 1963
Source: United States (US)
Launch site: AIR FORCE WESTERN TEST RANGE (AFWTR)
aabbcc
Your satellite tracking list
Your tracking list is empty




NASA's NSSDC Master Catalog

Two Line Element Set (TLE):
1  2949U 63014AS  20151.61936132 +.00008444 +00000-0 +34831+0 0  9996
2  2949 085.8867 029.2009 2071140 131.3179 279.5103 08.81729619201023
Source of the keplerian elements: AFSPC